Regional Weather Roundup
Issued by NWS Green Bay, WI

Home | Current Version | Previous Version | Text Only | Print | Product List | Glossary On
Versions: 1 2 3 4 5 6 7 8 9 10 11 12 13 14 15 16 17 18 19 20 21 22 23 24 25 26 27 28 29 30 31 32 33 34 35 36 37 38 39 40 41 42 43 44 45 46 47 48 49 50
000
ASUS43 KGRB 201811
RWRGRB

NORTH-CENTRAL AND NORTHEAST WISCONSIN REGIONAL WEATHER ROUNDUP
NATIONAL WEATHER SERVICE GREEN BAY WI
100 PM CDT THU JUL 20 2017

WIZ005-009-010>012-018-019-201900-
NORTH CENTRAL WISCONSIN

CITY           SKY/WX    TMP DP  RH WIND       PRES   REMARKS
IRONWOOD       NOT AVBL
MANITOWISH WTR MOSUNNY   80  63  55 NW9       30.00S
ARBOR VITAE    CLOUDY    82  66  57 W7        30.00S
EAGLE RIVER    CLOUDY    81  58  45 W10G18    30.00S
LAND O LAKES   MOSUNNY   82  60  47 W7        30.01S
RHINELANDER    CLOUDY    82  65  56 W9        30.02S
PHILLIPS       PTSUNNY   78  67  69 W9        30.02S
ANTIGO         SUNNY     79  65  60 NW12      30.02S
TOMAHAWK         N/A     79  63  58 W9        30.02F
MERRILL        SUNNY     80  65  60 W9        30.01S
$$

WIZ013-073-201900-
NORTHEAST WISCONSIN

CITY           SKY/WX    TMP DP  RH WIND       PRES   REMARKS
IRON MOUNTAIN  CLOUDY    84  59  42 NW7       29.94F
MARINETTE      CLOUDY    80  64  58 VRB5      29.95F
OCONTO         CLOUDY    81  65  59 W12G18    29.94F
$$

WIZ017-030-035>037-045-201900-
CENTRAL WISCONSIN

CITY           SKY/WX    TMP DP  RH WIND       PRES   REMARKS
MEDFORD        SUNNY     79  65  62 NW7       30.02F
WAUSAU         SUNNY     78  65  63 W10       30.00S
MOSINEE        NOT AVBL
MARSHFIELD     MOSUNNY   80  68  66 W9        30.01F
WISC RAPIDS    CLOUDY    81  70  69 VRB6      30.01F
STEVENS POINT  SUNNY     78  67  68 W8        30.01F
WAUPACA        MOSUNNY   83  69  61 W9        29.98F
SHAWANO        MOSUNNY   83  67  59 W7        29.97S
CLINTONVILLE   SUNNY     81  64  57 W10       29.98S
WAUTOMA        MOSUNNY   82  71  69 W13G18    29.98F
$$

WIZ038-039-048-051-201900-
FOX VALLEY

CITY           SKY/WX    TMP DP  RH WIND       PRES   REMARKS
NWS GREEN BAY  MOSUNNY   82  72  71 NW9       29.95F
APPLETON       PTSUNNY   81  66  61 W12G17    29.96F
OSHKOSH        MOSUNNY   82  70  66 W8        29.96F
FOND DU LAC    CLOUDY    82  69  64 NW7       29.97F
$$

WIZ022-050-052-201900-
EAST CENTRAL WISCONSIN

CITY           SKY/WX    TMP DP  RH WIND       PRES   REMARKS
EPHRAIM        FAIR      77  65  67 W7        29.94F
WASHINGTON ISL FAIR      74  66  75 SW10      29.93F
STURGEON BAY     N/A     78  68  71 W14       29.95F
MANITOWOC      PTSUNNY   82  68  62 NW10      29.95F
SHEBOYGAN      MOSUNNY   81  72  74 NW7       29.96F
$$

LMZ563-521-522-541>543-201900-
LAKESHORE

STATION/POSITION TIME  TEMP    WIND        PRES    VSBY  WAVE
                       AIR SEA DIR/SP/G                  HT/PER
                 (UTC) (F)     (DEG/KT/KT) (MB)    (MI)  (FT/S)
SHEBOYGAN LKSHOR 1800   80     280/  6/  7 1013.6F
KEWAUNEE LKSHORE 1742   81     300/  5/ 13 1013.3F
NORTHPORT PIER   1740   79     280/  4/ 11 1013.2F
N MID LAKE BUOY  1750   67 64  220/  8/  8 1014.1F         1/ 4
S GREEN BAY BUOY 1730   74 72  270/  6/  8 1014.2F
SISTER BAY LKSHO 1717   80     270/  7/  8   N/A
CHAMBERS ISLAND  1740   78     200/  6/ 10 1013.5S
MENOMINEE LKSHOR 1742   79     250/  9/ 14 1013.7F
$$




USA.gov is the U.S. government's official web portal to all federal, state and local government web resources and services.